Location: Bothwell
(42.3833°S, 147.0000°E)
Time: 09:18:47
(UTC+10:00)

UNISAT 6 - Pass Details

Date: 05 August 2024
Orbit: 589 x 662 km, 97.7° (Epoch: 14 September)

Event Time Altitude Azimuth Distance (km) Brightness Sun altitude
Rises 03:41:15 0° 151° (SSE) 3,033 ? -40.0°
Reaches altitude 10° 03:44:13 10° 131° (SE) 2,117 ? -39.5°
Enters shadow 03:45:44 15° 113° (ESE) 1,793 ? -39.2°
